Tracking 29494 objects as of 7-Sep-2024
HD Live streaming from Space Station
objects crossing your sky now

STARLINK-5402

Track STARLINK-5402 now!
10-day predictions
STARLINK-5402 is classified as:


NORAD ID: 54869
Int'l Code: 2022-177BB
Perigee: 565.3 km
Apogee: 567.2 km
Inclination: 43.0 °
Period: 95.8 minutes
Semi major axis: 6937 km
RCS: Unknown
Launch date: December 28, 2022
Source: United States (US)
Launch site: AIR FORCE EASTERN TEST RANGE (AFETR)
Your satellite tracking list
Your tracking list is empty




NASA's NSSDC Master Catalog

Two Line Element Set (TLE):
1 54869U 22177BB  24251.28411392  .00000358  00000-0  41560-4 0  9991
2 54869  43.0030 219.9652 0001306 266.7143  93.3550 15.02526927 94611
Source of the keplerian elements: AFSPC